Flag Weather past 2 weeks in Nikšić, Montenegro

Now
30 °F

Passing clouds.


Feels Like: 30 °F
Forecast: 26 / 57 °F
Wind: 1 mph from North

Location: Niksic

Current Time: Nov 23, 2014 at 7:11:40 AM

Latest Report: Nov 23, 2014 at 6:00 AM


Visibility: 13 mi

Pressure: 30.38 "Hg

Humidity: 98%

Dew point: 30 °F

Location of NikšićLocation

Historic Weather in Nikšić — Graph

°F

Nikšić temperature yesterday

Maximum temperature yesterday: 54 °F (at 1:00 PM)
Minimum temperature yesterday: 27 °F (at 7:00 AM)
Average temperature yesterday: 40 °F

Past Weeks' High & Low Weather Summary

 TemperatureHumidityPressure
High65 °F (Nov 14, 12:00 PM)100% (Nov 8, 7:00 AM)30.38 "Hg (Nov 8, 7:00 AM)
Low27 °F (Nov 22, 7:00 AM)35% (Nov 22, 1:00 PM)29.78 "Hg (Nov 13, 12:00 PM)
Average48 °F94%30.04 "Hg
* Reported Nov 8 5:00 AM — Nov 23 5:00 AM, Nikšić, Weather by CustomWeather, © 2014

Note: Actual official high and low records may vary slightly from our data, if they occured in-between our weather recording intervals... More about our weather records

Advertising

Nikšić weather history for previous 24 hours

 ConditionsComfort  
Time TempWeatherWind HumidityBarometerVisibility
5:00 AM
Nov 23
31 °FClear.1 mph98%30.38 "Hg12 mi
4:00 AM31 °FClear.2 mph99%30.38 "Hg12 mi
1:00 AM33 °FClear.2 mph99%30.37 "Hg12 mi
10:00 PM
Nov 22
34 °FClear.1 mph99%30.37 "Hg12 mi
9:00 PM35 °FClear.1 mph99%30.36 "Hg12 mi
8:00 PM36 °FClear.1 mph100%30.33 "Hg12 mi
7:00 PM38 °FClear.1 mph93%30.31 "Hg12 mi
6:00 PM41 °FPassing clouds.1 mph74%30.29 "Hg12 mi
5:00 PM45 °FPassing clouds.5 mph55%30.25 "Hg12 mi
4:00 PM47 °FPartly sunny.5 mph55%30.23 "Hg12 mi
3:00 PM53 °FScattered clouds.3 mph44%30.19 "Hg12 mi
2:00 PM54 °FScattered clouds.3 mph41%30.19 "Hg12 mi
1:00 PM54 °FPassing clouds.1 mph35%30.20 "Hg12 mi
12:00 PM52 °FScattered clouds.1 mph43%30.21 "Hg12 mi
11:00 AM47 °FPassing clouds.2 mph71%30.25 "Hg12 mi
10:00 AM42 °FPassing clouds.1 mph79%30.28 "Hg12 mi
9:00 AM38 °FPassing clouds.1 mph90%30.31 "Hg12 mi
8:00 AM32 °FSunny.1 mph100%30.33 "Hg12 mi
7:00 AM27 °FSunny.1 mph98%30.34 "Hg12 mi
Weather by CustomWeather, © 2014

See weather overviewHow to use our weather pages